Toronto Pearson, Ontario

5:05 PM EST on December 15, 2019 (GMT -0500)
Toronto-Pearson International

Weather History for CYYZ - May, 2019

Change the Weather History Date:

Sunday, May 5, 2019

  Actual Average Record
Temperature  
Mean Temperature 51 °F -  
Max Temperature 62 °F 66 °F 82 °F (2000)
Min Temperature 40 °F 44 °F 26 °F (2002)
Degree Days  
Heating Degree Days 14    
Growing Degree Days 1 (Base 50)    
Moisture  
Dew Point 42 °F    
Average Humidity 70    
Maximum Humidity 94    
Minimum Humidity 35    
Precipitation  
Precipitation 0.00 in 0.09 in - ()
Sea Level Pressure  
Sea Level Pressure 29.89 in    
Wind  
Wind Speed 5 mph ()    
Max Wind Speed 10 mph    
Max Gust Speed -    
Visibility 11.8 miles    
Events Fog    
Averages and records for this station are not official NWS values.
T = Trace of Precipitation, MM = Missing Value Source: Averaged Metar Reports

Daily Weather History Graph

Daily Weather History Graph

Search for Another Location

Airport or City:

Astronomy

May. 05, 2019 Rise Set
Actual Time 6:05 AM EDT 8:25 PM EDT
Civil Twilight 5:33 AM EDT 8:57 PM EDT
Nautical Twilight 4:54 AM EDT 9:37 PM EDT
Astronomical Twilight 4:10 AM EDT 10:21 PM EDT
Moon 6:50 AM EDT (5/5) 9:16 PM EDT (5/5)
Length of Visible Light 15h 23m
Length of Day
14h 19m
New Moon, 1% of the Moon is Illuminated
May 5
New Moon
May 11
First Quarter
May 18
Full
May 26
Last Quarter
Jun 3
New

Hourly Weather History & Observations

Time (EDT) Temp. Windchill Dew Point Humidity Pressure Visibility Wind Dir Wind Speed Gust Speed Precip Events Conditions
12:00 AM 48.2 °F - 42.8 °F 82% 29.94 in 15.0 mi Calm Calm - N/A   Scattered Clouds
1:00 AM 46.4 °F - 42.8 °F 87% 29.94 in 15.0 mi NW 2.3 mph - N/A   Partly Cloudy
2:00 AM 44 °F - 41 °F 86% 29.94 in 15 mi NW 4.6 mph - -   Scattered Clouds
2:00 AM 44.6 °F 42.2 °F 41.0 °F 87% 29.93 in 15.0 mi NW 4.6 mph - N/A   Partly Cloudy
3:00 AM 44.6 °F - 41.0 °F 87% 29.91 in 15.0 mi Variable 2.3 mph - N/A   Partly Cloudy
4:00 AM 44.6 °F 42.2 °F 41.0 °F 87% 29.91 in 12.0 mi North 4.6 mph - N/A   Partly Cloudy
4:49 AM 42.8 °F 38.0 °F 41.0 °F 93% 29.91 in 6.0 mi NNW 8.1 mph - N/A   Partly Cloudy
5:00 AM 42.8 °F 38.0 °F 41.0 °F 93% 29.91 in 6.0 mi NNW 8.1 mph - N/A   Partly Cloudy
5:53 AM 41.0 °F 35.8 °F 39.2 °F 93% 29.91 in 1.2 mi NNW 8.1 mph - N/A   Partly Cloudy
6:00 AM 41.0 °F 36.4 °F 39.2 °F 93% 29.91 in 1.2 mi NNW 6.9 mph - N/A   Partly Cloudy
7:00 AM 42.8 °F 38.6 °F 41.0 °F 93% 29.91 in 0.5 mi NW 6.9 mph - N/A Fog Fog
7:37 AM 44.6 °F 41.4 °F 42.8 °F 93% 29.92 in 1.5 mi NNW 5.8 mph - N/A   Scattered Clouds
7:50 AM 44.6 °F 42.2 °F 42.8 °F 93% 29.92 in 3.0 mi NNW 4.6 mph - N/A   Scattered Clouds
8:00 AM 46 °F - 44 °F 90% 29.92 in 4 mi NNW 4.6 mph - -   Mist
8:00 AM 46.4 °F 44.3 °F 44.6 °F 93% 29.92 in 4.0 mi NNW 4.6 mph - N/A   Scattered Clouds
9:00 AM 50.0 °F - 48.2 °F 94% 29.92 in 15.0 mi North 5.8 mph - N/A   Scattered Clouds
10:00 AM 53.6 °F - 50.0 °F 88% 29.91 in 15.0 mi Variable 4.6 mph - N/A   Scattered Clouds
11:00 AM 58 °F - 50 °F 66% 29.91 in 15 mi NE 3.5 mph - -  
11:00 AM 57.2 °F - 50.0 °F 77% 29.91 in 15.0 mi NE 3.5 mph - N/A   Scattered Clouds
12:00 PM 59.0 °F - 46.4 °F 63% 29.90 in 15.0 mi ESE 8.1 mph - N/A   Partly Cloudy
1:00 PM 59.0 °F - 44.6 °F 59% 29.89 in 15.0 mi SE 10.4 mph - N/A   Partly Cloudy
2:00 PM 60 °F - 43 °F 43% 29.87 in 15 mi SE 9.2 mph - -   Scattered Clouds
2:00 PM 60.8 °F - 42.8 °F 52% 29.87 in 15.0 mi SE 9.2 mph - N/A   Partly Cloudy
3:00 PM 60.8 °F - 42.8 °F 52% 29.86 in 15.0 mi SE 10.4 mph - N/A   Partly Cloudy
4:00 PM 60.8 °F - 42.8 °F 52% 29.85 in 15.0 mi SE 6.9 mph - N/A   Partly Cloudy
5:00 PM 61 °F - 41 °F 36% 29.84 in 15 mi SSE 6.9 mph - -  
5:00 PM 60.8 °F - 41.0 °F 48% 29.84 in 15.0 mi SSE 6.9 mph - N/A   Partly Cloudy
6:00 PM 60.8 °F - 39.2 °F 45% 29.85 in 15.0 mi SSE 8.1 mph - N/A   Partly Cloudy
7:00 PM 57.2 °F - 39.2 °F 51% 29.85 in 15.0 mi South 6.9 mph - N/A   Partly Cloudy
8:00 PM 57 °F - 37 °F 35% 29.85 in 15 mi South 5.8 mph - -   Scattered Clouds
8:00 PM 57.2 °F - 37.4 °F 48% 29.85 in 15.0 mi South 6.9 mph - N/A   Partly Cloudy
9:00 PM 55.4 °F - 35.6 °F 47% 29.86 in 15.0 mi SSE 3.5 mph - N/A   Partly Cloudy
10:00 PM 53.6 °F - 37.4 °F 54% 29.88 in 15.0 mi South 3.5 mph - N/A   Clear
11:00 PM 53 °F - 37 °F 43% 29.88 in 15 mi SW 2.3 mph - -  
11:00 PM 53.6 °F - 37.4 °F 54% 29.88 in 15.0 mi SW 3.5 mph - N/A   Clear